Miscellaneous Local Product
Issued by NWS North Platte, NE

Home | Current Version | Previous Version | Text Only | Print | Product List | Glossary On
Versions: 1 2 3 4 5 6 7 8 9 10 11 12 13 14 15 16 17 18 19 20 21 22 23 24 25 26 27 28 29 30 31 32 33 34 35 36 37 38 39 40 41 42 43 44 45 46 47 48 49 50
000
AXUS43 KLBF 032110
MISLBF


WESTERN AND NORTH CENTRAL NEBRASKA HOURLY WEATHER ROUNDUP
NATIONAL WEATHER SERVICE NORTH PLATTE NE
300 PM CST TUE MAR 03 2015

***STATIONS NOT REPORTING VARIABLES SUCH AS SKY/WEATHER OR
PRESSURE ARE PROVIDED BY THE NEBRASKA DEPARTMENT OF
ROADS...RAWS...AND APRS NETWORKS...AND ARE NOT UNDER
NATIONAL WEATHER SERVICE QUALITY CONTROL***

...OBSERVATIONS IN AND NEAR THE EASTERN PANHANDLE OF NEBRASKA...

CITY           SKY/WX    TMP DP  RH WIND       PRES   REMARKS
PINE RIDGE     CLOUDY    17   5  59 N9        29.97F WCI   6
CHADRON        LGT SNOW  17  11  77 NE3       29.98F VSB 3/4
ALLIANCE       CLOUDY    21   9  59 NW13      29.91F WCI   9
SIDNEY         CLOUDY    22   9  57 NE10      29.90F WCI  11
WHITECLAY        N/A     17   4  57 W7          N/A  WCI   7
CRESCENT LAKE    N/A     22   5  47 N12G20      N/A  WCI  11
LISCO            N/A     27   7  41 W9          N/A  WCI  18
BIG SPRINGS      N/A     28  12  50 N9          N/A  WCI  19
LEWELLEN         N/A     25   2  38 N13         N/A  WCI  14
$$

...OBSERVATIONS IN NORTH CENTRAL NEBRASKA...

CITY           SKY/WX    TMP DP  RH WIND       PRES   REMARKS
VALENTINE      MOSUNNY   20   7  57 NW16G28   29.98F WCI   6
THEDFORD       SUNNY     26   6  43 N15G23    29.97R WCI  13
AINSWORTH      SUNNY     21   7  54 NW21G26   29.96S WCI   5
O`NEILL        MOSUNNY   25  11  56 NW26      29.97R WCI   8
ORD            SUNNY     29   4  34 N24G31    29.96S WCI  15
BROKEN BOW     CLOUDY    30   6  36 N24G36    29.95S WCI  16
BROWNLEE         N/A     19   1  47 N25         N/A  WCI   1
SPRINGVIEW       N/A     20   5  52 NW18G26     N/A  WCI   5
BREWSTER         N/A     30   8  39 SE17        N/A  WCI  18
ROSE             N/A     29  13  52 SW14        N/A  WCI  18
NEWPORT          N/A     27  11  51 NW22        N/A  WCI  13
SARGENT          N/A     28   7  41 N8G17       N/A  WCI  20
COMSTOCK         N/A     32   9  37 W18         N/A  WCI  21
CHAMBERS         N/A     27   8  44 N14         N/A  WCI  16
EWING            N/A     25   8  47 N13G26      N/A  WCI  14
$$

...OBSERVATIONS IN SOUTHWEST NEBRASKA AND FAR NORTHEAST COLORADO...

CITY           SKY/WX    TMP DP  RH WIND       PRES   REMARKS
WRAY           FAIR      32  13  44 N13G22    29.90F WCI  23
IMPERIAL         N/A     30  10  43 N22       29.91F WCI  17
OGALLALA       PTSUNNY   28  10  47 N17       29.93F WCI  15
NORTH PLATTE   PTSUNNY   29   9  43 N21       29.95F WCI  16
MCCOOK         MOSUNNY   36  11  35 N15G23    29.92F WCI  27
LEXINGTON      MOSUNNY   32  10  40 N16G23    29.95R WCI  21
PAXTON           N/A     28  12  52 N14         N/A  WCI  17
BRADY            N/A     30  10  43 SW3         N/A
GOTHENBURG       N/A     29  10  44 N15         N/A  WCI  18
CALLAWAY         N/A     27   6  39 N20         N/A  WCI  14
$$

...NORTH PLATTE AREA...

CITY           SKY/WX    TMP DP  RH WIND       PRES   REMARKS
AIRPORT        PTSUNNY   29   9  43 N21       29.95F WCI  16
DOWNTOWN         N/A     27   9  45 N12G21      N/A  WCI  17
$$

...SOME WEATHER OBSERVATIONS FROM AROUND THE REGION...

CITY           SKY/WX    TMP DP  RH WIND       PRES   REMARKS
DENVER         LGT SNOW  19  13  77 NE8       29.83F WCI   9
LARAMIE        LGT SNOW  17  11  77 SE20      29.64F WCI   1
CHEYENNE       FLURRIES  13   4  67 N7        29.77F WCI   3
SCOTTSBLUFF    CLOUDY    22  10  60 W12       29.92F WCI  10
RAPID CITY     CLOUDY    17   5  59 N23       29.96F WCI  -1
PIERRE         PTSUNNY   19   3  49 NW21G28   30.01F WCI   3
WINNER         CLOUDY    19   1  45 NW23G32   30.00F WCI   2
SIOUX FALLS    PTSUNNY   16   7  67 NW26G37   29.92S BLWGSNOWWCI  -3
OMAHA          PTSUNNY   32  20  61 N26G32    29.88R WCI  18
GRAND ISLAND   PTSUNNY   31  11  43 N21G28    29.95R WCI  18
KANSAS CITY    CLOUDY    41  31  67 NW12      29.83R
WICHITA        CLOUDY    46  30  53 N15       29.83R
HAYS           CLOUDY    37  18  44 N18       29.91R WCI  27
LIBERAL        CLOUDY    43  34  70 NE18G24   29.83F
GOODLAND       CLOUDY    29  15  56 N15       29.89F WCI  18
$$



USA.gov is the U.S. government's official web portal to all federal, state and local government web resources and services.